TimeEST,TemperatureF,Dew PointF,Humidity,Sea Level PressureIn,VisibilityMPH,Wind Direction,Wind SpeedMPH,Gust SpeedMPH,PrecipitationIn,Events,Conditions,WindDirDegrees,DateUTC
12:03 AM,73.0,71.1,93,29.90,3.0,West,17.3,26.5,0.07,Rain-Thunderstorm,Heavy Rain,280,2013-11-27 05:03:00
12:13 AM,72.0,70.0,93,29.89,2.5,WSW,24.2,28.8,0.12,Rain-Thunderstorm,Heavy Thunderstorms and Rain,250,2013-11-27 05:13:00
12:22 AM,72.0,70.0,93,29.89,1.2,SW,8.1,-,0.35,Rain-Thunderstorm,Heavy Thunderstorms and Rain,230,2013-11-27 05:22:00
12:30 AM,72.0,71.1,97,29.89,2.0,SSW,10.4,-,0.49,Rain-Thunderstorm,Heavy Thunderstorms and Rain,210,2013-11-27 05:30:00
12:41 AM,73.0,71.1,93,29.87,5.0,SW,9.2,-,0.53,Rain-Thunderstorm,Light Thunderstorms and Rain,220,2013-11-27 05:41:00
12:53 AM,73.0,71.1,93,29.87,7.0,South,10.4,-,0.54,Rain-Thunderstorm,Thunderstorms and Rain,190,2013-11-27 05:53:00
1:20 AM,73.0,72.0,96,29.85,10.0,South,10.4,-,0.04,Rain-Thunderstorm,Light Rain,190,2013-11-27 06:20:00
1:53 AM,73.9,72.0,93,29.84,10.0,SSW,15.0,-,0.04,Thunderstorm,Mostly Cloudy,200,2013-11-27 06:53:00
2:03 AM,75.0,72.0,90,29.84,10.0,SSW,12.7,-,N/A,,Scattered Clouds,200,2013-11-27 07:03:00
2:37 AM,75.0,73.0,94,29.84,10.0,SSW,11.5,-,0.00,Rain-Thunderstorm,Light Thunderstorms and Rain,210,2013-11-27 07:37:00
2:53 AM,75.0,73.0,94,29.84,6.0,SSW,10.4,-,0.02,Rain-Thunderstorm,Thunderstorms and Rain,210,2013-11-27 07:53:00
3:01 AM,73.0,72.0,96,29.85,2.5,WNW,13.8,21.9,0.02,Rain-Thunderstorm,Heavy Rain,290,2013-11-27 08:01:00
3:04 AM,72.0,70.0,93,29.85,1.8,WNW,15.0,21.9,0.12,Rain-Thunderstorm,Heavy Rain,290,2013-11-27 08:04:00
3:25 AM,72.0,71.1,97,29.84,2.0,NNW,5.8,-,0.41,Rain,Heavy Rain,340,2013-11-27 08:25:00
3:33 AM,72.0,71.1,97,29.83,4.0,North,6.9,-,0.43,Rain,Rain,350,2013-11-27 08:33:00
3:53 AM,71.1,70.0,96,29.83,5.0,ENE,4.6,-,0.52,Rain,Rain,60,2013-11-27 08:53:00
4:53 AM,72.0,71.1,97,29.86,9.0,Calm,Calm,-,0.09,Rain,Light Rain,0,2013-11-27 09:53:00
5:24 AM,72.0,71.1,97,29.86,5.0,Calm,Calm,-,0.08,Rain,Rain,0,2013-11-27 10:24:00
5:53 AM,73.0,71.1,93,29.88,5.0,NW,11.5,21.9,0.18,Rain,Rain,310,2013-11-27 10:53:00
6:53 AM,73.9,70.0,87,29.88,10.0,NW,15.0,20.7,0.07,Rain,Light Rain,320,2013-11-27 11:53:00
7:53 AM,75.0,66.0,73,29.92,10.0,NW,19.6,25.3,0.00,,Clear,320,2013-11-27 12:53:00
8:53 AM,75.9,64.9,69,29.95,10.0,NW,12.7,-,N/A,,Mostly Cloudy,320,2013-11-27 13:53:00
9:53 AM,77.0,64.9,66,29.97,10.0,NW,13.8,-,N/A,,Scattered Clouds,310,2013-11-27 14:53:00
10:53 AM,77.0,64.0,64,29.97,10.0,NW,18.4,25.3,N/A,,Clear,310,2013-11-27 15:53:00
11:53 AM,75.9,63.0,64,29.97,10.0,NW,16.1,25.3,N/A,,Scattered Clouds,310,2013-11-27 16:53:00
12:53 PM,75.9,61.0,60,29.96,10.0,NW,11.5,24.2,N/A,,Partly Cloudy,310,2013-11-27 17:53:00
1:53 PM,77.0,61.0,58,29.94,10.0,NW,19.6,-,N/A,,Partly Cloudy,320,2013-11-27 18:53:00
2:53 PM,75.9,63.0,64,29.95,10.0,NNW,15.0,23.0,N/A,,Mostly Cloudy,330,2013-11-27 19:53:00
3:53 PM,75.9,62.1,62,29.96,10.0,NW,18.4,24.2,N/A,,Mostly Cloudy,320,2013-11-27 20:53:00
4:53 PM,73.0,62.1,68,29.98,10.0,NNW,19.6,27.6,N/A,,Mostly Cloudy,330,2013-11-27 21:53:00
5:53 PM,73.0,59.0,61,30.01,10.0,NNW,16.1,26.5,N/A,,Partly Cloudy,340,2013-11-27 22:53:00
6:53 PM,72.0,60.1,66,30.03,10.0,NNW,10.4,-,N/A,,Mostly Cloudy,330,2013-11-27 23:53:00
7:53 PM,72.0,59.0,64,30.05,10.0,NNW,15.0,21.9,N/A,,Scattered Clouds,340,2013-11-28 00:53:00
8:53 PM,71.1,61.0,70,30.07,10.0,NNW,13.8,20.7,N/A,,Clear,340,2013-11-28 01:53:00
9:53 PM,71.1,60.1,68,30.09,10.0,North,13.8,20.7,N/A,,Mostly Cloudy,350,2013-11-28 02:53:00
10:49 PM,69.8,60.8,73,30.11,10.0,North,11.5,20.7,N/A,,Mostly Cloudy,350,2013-11-28 03:49:00
10:53 PM,70.0,60.1,71,30.11,10.0,North,12.7,20.7,N/A,,Mostly Cloudy,350,2013-11-28 03:53:00
11:53 PM,70.0,60.1,71,30.11,10.0,North,12.7,-,N/A,,Mostly Cloudy,350,2013-11-28 04:53:00